| time (UTC) | temp C | wind direction | speed KPH | gust KPH | rain 1hr cm | rain 24hr cm | rain mn cm | humidity % | barometer mb |
| 20260507140903 | 7 | 120 | 0.0 | 3.2 | 0.05 | 1.98 | 1.30 | 99 | 1011.0 |
| 20260507140006 | 7 | 120 | 0.0 | 4.8 | 0.05 | 1.96 | 1.27 | 99 | 1010.7 |
| 20260507135403 | 7 | 97 | 1.6 | 4.8 | 0.03 | 1.93 | 1.22 | 99 | 1011.0 |
| 20260507134503 | 6 | 64 | 3.2 | 9.7 | 0.03 | 1.93 | 1.22 | 99 | 1011.1 |
| 20260507133814 | 6 | 70 | 3.2 | 12.9 | 0.03 | 1.93 | 1.22 | 99 | 1010.8 |
| 20260507132704 | 7 | 103 | 1.6 | 4.8 | 0.05 | 1.93 | 1.22 | 99 | 1010.8 |
| 20260507132011 | 7 | 109 | 1.6 | 4.8 | 0.05 | 1.93 | 1.22 | 99 | 1010.6 |
| 20260507130906 | 7 | 80 | 1.6 | 6.4 | 0.10 | 1.93 | 1.22 | 99 | 1010.7 |
| 20260507130005 | 7 | 96 | 1.6 | 3.2 | 0.05 | 1.88 | 1.19 | 99 | 1010.5 |
| 20260507125403 | 7 | 92 | 1.6 | 6.4 | 0.10 | 1.88 | 1.19 | 99 | 1010.3 |
| 20260507124505 | 7 | 70 | 3.2 | 6.4 | 0.10 | 1.88 | 1.19 | 99 | 1010.4 |
| 20260507123620 | 7 | 85 | 1.6 | 6.4 | 0.10 | 1.88 | 1.19 | 99 | 1010.3 |
| 20260507122705 | 7 | 60 | 3.2 | 6.4 | 0.10 | 1.85 | 1.17 | 99 | 1009.9 |
| 20260507121805 | 7 | 94 | 1.6 | 6.4 | 0.10 | 1.85 | 1.17 | 99 | 1009.8 |
| 20260507120905 | 7 | 85 | 1.6 | 6.4 | 0.05 | 1.83 | 1.14 | 99 | 1010.0 |
| 20260507120005 | 7 | 89 | 1.6 | 6.4 | 0.10 | 1.83 | 1.14 | 99 | 1009.8 |
| 20260507115610 | 7 | 82 | 3.2 | 6.4 | 0.05 | 1.80 | 1.12 | 99 | 1009.9 |
| 20260507114503 | 7 | 58 | 3.2 | 9.7 | 0.05 | 1.80 | 1.12 | 99 | 1009.8 |
| 20260507113604 | 7 | 76 | 1.6 | 6.4 | 0.10 | 1.80 | 1.12 | 99 | 1009.7 |
| 20260507112703 | 7 | 68 | 3.2 | 9.7 | 0.05 | 1.78 | 1.09 | 99 | 1009.6 |
| 20260507111803 | 7 | 73 | 1.6 | 4.8 | 0.10 | 1.78 | 1.09 | 99 | 1009.4 |
| 20260507110905 | 7 | 69 | 3.2 | 9.7 | 0.13 | 1.78 | 1.09 | 99 | 1009.5 |
| 20260507110211 | 7 | 54 | 3.2 | 9.7 | 0.10 | 1.75 | 1.04 | 99 | 1009.5 |
| 20260507105403 | 7 | 64 | 1.6 | 9.7 | 0.13 | 1.75 | 1.04 | 99 | 1009.5 |
| 20260507104504 | 7 | 78 | 1.6 | 6.4 | 0.15 | 1.75 | 1.04 | 99 | 1009.2 |
| 20260507103810 | 7 | 90 | 1.6 | 6.4 | 0.15 | 1.70 | 1.02 | 99 | 1009.0 |
| 20260507102703 | 7 | 109 | 0.0 | 4.8 | 0.18 | 1.70 | 1.02 | 99 | 1009.1 |
| 20260507101804 | 7 | 79 | 1.6 | 4.8 | 0.15 | 1.68 | 0.99 | 99 | 1009.0 |
| 20260507101110 | 7 | 69 | 1.6 | 6.4 | 0.15 | 1.65 | 0.97 | 99 | 1009.0 |
| 20260507100005 | 7 | 55 | 3.2 | 9.7 | 0.15 | 1.63 | 0.94 | 99 | 1008.8 |
| 20260507095610 | 7 | 50 | 3.2 | 9.7 | 0.18 | 1.63 | 0.94 | 99 | 1008.7 |
| 20260507094503 | 8 | 138 | 0.0 | 3.2 | 0.18 | 1.60 | 0.89 | 99 | 1008.5 |
| 20260507093603 | 8 | 149 | 0.0 | 3.2 | 0.18 | 1.55 | 0.86 | 99 | 1008.5 |
| 20260507092703 | 8 | 147 | 0.0 | 1.6 | 0.18 | 1.52 | 0.84 | 99 | 1008.1 |
| 20260507091803 | 8 | 182 | 0.0 | 4.8 | 0.20 | 1.52 | 0.84 | 99 | 1008.0 |
| 20260507090903 | 8 | 156 | 0.0 | 4.8 | 0.20 | 1.50 | 0.81 | 99 | 1008.1 |
| 20260507090005 | 8 | 159 | 0.0 | 3.2 | 0.20 | 1.47 | 0.79 | 99 | 1007.8 |
| 20260507085611 | 8 | 173 | 0.0 | 1.6 | 0.18 | 1.45 | 0.76 | 99 | 1007.8 |
| 20260507084504 | 8 | 161 | 0.0 | 1.6 | 0.18 | 1.42 | 0.71 | 99 | 1007.7 |
| 20260507083810 | 8 | 171 | 0.0 | 1.6 | 0.18 | 1.37 | 0.69 | 99 | 1007.8 |
| 20260507082703 | 8 | 198 | 0.0 | 3.2 | 0.18 | 1.35 | 0.66 | 99 | 1007.7 |
| 20260507081804 | 8 | 136 | 0.0 | 1.6 | 0.15 | 1.32 | 0.64 | 99 | 1007.4 |
| 20260507081111 | 8 | 179 | 0.0 | 3.2 | 0.18 | 1.32 | 0.64 | 99 | 1007.4 |
| 20260507080212 | 8 | 209 | 0.0 | 6.4 | 0.15 | 1.30 | 0.61 | 99 | 1007.2 |
| 20260507075404 | 8 | 195 | 1.6 | 6.4 | 0.13 | 1.22 | 0.56 | 99 | 1007.1 |
| 20260507074503 | 8 | 171 | 0.0 | 6.4 | 0.15 | 1.22 | 0.53 | 99 | 1007.1 |
| 20260507073603 | 8 | 153 | 0.0 | 1.6 | 0.15 | 1.19 | 0.51 | 99 | 1007.0 |
| 20260507072703 | 8 | 151 | 0.0 | 1.6 | 0.18 | 1.17 | 0.48 | 99 | 1006.9 |
| 20260507071803 | 8 | 131 | 0.0 | 1.6 | 0.20 | 1.17 | 0.48 | 99 | 1006.9 |
| 20260507070904 | 8 | 149 | 0.0 | 1.6 | 0.20 | 1.14 | 0.46 | 99 | 1006.7 |
| 20260507070211 | 8 | 149 | 0.0 | 1.6 | 0.20 | 1.14 | 0.46 | 99 | 1006.6 |
| 20260507064503 | 8 | 164 | 0.0 | 1.6 | 0.18 | 1.09 | 0.38 | 99 | 1006.5 |
| 20260507063603 | 7 | 173 | 1.6 | 4.8 | 0.18 | 1.04 | 0.36 | 99 | 1006.4 |
| 20260507062911 | 7 | 174 | 1.6 | 4.8 | 0.18 | 1.02 | 0.33 | 99 | 1006.3 |
| 20260507061803 | 7 | 186 | 3.2 | 14.5 | 0.15 | 0.97 | 0.28 | 99 | 1006.4 |
| 20260507060903 | 7 | 181 | 4.8 | 12.9 | 0.13 | 0.94 | 0.23 | 99 | 1006.3 |
| 20260507060004 | 7 | 184 | 3.2 | 6.4 | 0.13 | 0.94 | 0.23 | 99 | 1006.3 |
| 20260507055611 | 7 | 184 | 3.2 | 11.3 | 0.10 | 0.89 | 0.20 | 99 | 1006.1 |
| 20260507054503 | 7 | 182 | 1.6 | 4.8 | 0.10 | 0.89 | 0.20 | 99 | 1006.1 |
| 20260507053603 | 7 | 184 | 1.6 | 9.7 | 0.05 | 0.86 | 0.18 | 99 | 1006.2 |
| 20260507052703 | 7 | 173 | 0.0 | 1.6 | 0.03 | 0.84 | 0.15 | 99 | 1005.8 |
| 20260507051803 | 7 | 0 | 0.0 | 0.0 | 0.00 | 0.81 | 0.13 | 99 | 1005.7 |
| 20260507050903 | 7 | 157 | 0.0 | 1.6 | 0.03 | 0.81 | 0.13 | 99 | 1005.6 |
| 20260507050005 | 7 | 167 | 0.0 | 3.2 | 0.03 | 0.81 | 0.13 | 99 | 1005.6 |
| 20260507045611 | 7 | 178 | 0.0 | 3.2 | 0.03 | 0.81 | 0.13 | 99 | 1005.5 |
| 20260507044504 | 7 | 172 | 0.0 | 3.2 | 0.03 | 0.81 | 0.13 | 99 | 1005.6 |
| 20260507043810 | 8 | 145 | 0.0 | 1.6 | 0.03 | 0.81 | 0.13 | 99 | 1005.4 |
| 20260507042703 | 8 | 229 | 0.0 | 9.7 | 0.03 | 0.81 | 0.13 | 99 | 1005.3 |
| 20260507041803 | 8 | 233 | 0.0 | 9.7 | 0.03 | 0.81 | 0.13 | 99 | 1005.1 |
| 20260507040903 | 8 | 201 | 1.6 | 4.8 | 0.00 | 0.79 | 0.10 | 99 | 1005.1 |
| 20260507040015 | 8 | 178 | 0.0 | 6.4 | 0.00 | 0.79 | 0.10 | 99 | 1005.0 |
| 20260507035610 | 8 | 180 | 1.6 | 6.4 | 0.00 | 0.79 | 0.10 | 99 | 1005.0 |
| 20260507034503 | 8 | 198 | 0.0 | 4.8 | 0.00 | 0.79 | 0.10 | 99 | 1004.6 |
| 20260507033603 | 8 | 135 | 0.0 | 3.2 | 0.00 | 0.79 | 0.10 | 99 | 1004.7 |
| 20260507032703 | 8 | 205 | 1.6 | 9.7 | 0.00 | 0.79 | 0.10 | 99 | 1004.5 |
| 20260507031803 | 8 | 186 | 1.6 | 9.7 | 0.00 | 0.79 | 0.10 | 99 | 1004.5 |
| 20260507030904 | 8 | 227 | 0.0 | 3.2 | 0.00 | 0.79 | 0.10 | 99 | 1004.6 |
| 20260507030004 | 8 | 188 | 0.0 | 3.2 | 0.00 | 0.79 | 0.10 | 99 | 1004.4 |
| 20260507025403 | 8 | 198 | 1.6 | 6.4 | 0.00 | 0.79 | 0.10 | 99 | 1004.4 |
| 20260507024505 | 8 | 198 | 0.0 | 4.8 | 0.03 | 0.79 | 0.10 | 99 | 1004.3 |
| 20260507023603 | 8 | 160 | 0.0 | 4.8 | 0.05 | 0.79 | 0.10 | 99 | 1004.4 |
| 20260507022705 | 8 | 168 | 0.0 | 1.6 | 0.05 | 0.79 | 0.10 | 99 | 1004.3 |
| 20260507021803 | 9 | 192 | 0.0 | 6.4 | 0.05 | 0.79 | 0.10 | 99 | 1004.0 |
| 20260507020903 | 9 | 206 | 1.6 | 6.4 | 0.10 | 0.79 | 0.10 | 99 | 1004.4 |
| 20260507020004 | 9 | 216 | 0.0 | 3.2 | 0.10 | 0.79 | 0.10 | 99 | 1004.0 |
| 20260507015403 | 9 | 0 | 0.0 | 0.0 | 0.10 | 0.79 | 0.10 | 99 | 1003.9 |
| 20260507014503 | 9 | 195 | 0.0 | 3.2 | 0.05 | 0.76 | 0.05 | 99 | 1004.0 |
| 20260507013603 | 9 | 167 | 0.0 | 3.2 | 0.03 | 0.71 | 0.03 | 99 | 1003.9 |
| 20260507012703 | 9 | 176 | 0.0 | 1.6 | 0.03 | 0.71 | 0.03 | 99 | 1003.8 |
| 20260507011803 | 9 | 153 | 0.0 | 1.6 | 0.03 | 0.71 | 0.03 | 99 | 1003.9 |
| 20260507010903 | 9 | 214 | 1.6 | 9.7 | 0.00 | 0.69 | 0.00 | 99 | 1003.9 |
| 20260507010212 | 10 | 161 | 0.0 | 3.2 | 0.00 | 0.69 | 0.00 | 99 | 1003.9 |
| 20260507005407 | 10 | 149 | 0.0 | 3.2 | 0.00 | 0.69 | 0.00 | 99 | 1003.9 |
| 20260507004712 | 10 | 0 | 0.0 | 0.0 | 0.00 | 0.69 | 0.00 | 99 | 1003.7 |
| 20260507003603 | 10 | 159 | 0.0 | 3.2 | 0.00 | 0.69 | 0.00 | 99 | 1003.7 |
| 20260507002703 | 10 | 162 | 0.0 | 1.6 | 0.00 | 0.69 | 0.00 | 99 | 1003.7 |
| 20260507001803 | 10 | 164 | 0.0 | 1.6 | 0.00 | 0.69 | 0.00 | 99 | 1003.6 |
| 20260507000903 | 10 | 162 | 0.0 | 1.6 | 0.00 | 0.69 | 0.00 | 99 | 1003.9 |
| 20260507000004 | 10 | 159 | 0.0 | 3.2 | 0.00 | 0.69 | 0.00 | 99 | 1003.7 |
| 20260506235403 | 10 | 169 | 0.0 | 1.6 | 0.00 | 0.69 | 0.00 | 99 | 1003.6 |
| 20260506234503 | 10 | 0 | 0.0 | 0.0 | 0.00 | 0.69 | 0.00 | 99 | 1003.6 |
| 20260506233603 | 10 | 0 | 0.0 | 0.0 | 0.00 | 0.69 | 0.00 | 99 | 1003.6 |
| 20260506232703 | 10 | 0 | 0.0 | 0.0 | 0.00 | 0.69 | 0.00 | 99 | 1003.5 |
| 20260506231803 | 10 | 0 | 0.0 | 0.0 | 0.00 | 0.69 | 0.00 | 99 | 1003.7 |
| 20260506230903 | 10 | 171 | 0.0 | 1.6 | 0.00 | 0.71 | 0.00 | 99 | 1003.5 |
| 20260506230004 | 10 | 171 | 0.0 | 3.2 | 0.00 | 0.71 | 0.00 | 99 | 1003.5 |
| 20260506225403 | 10 | 164 | 0.0 | 3.2 | 0.00 | 0.76 | 0.00 | 99 | 1003.2 |
| 20260506224518 | 10 | 0 | 0.0 | 0.0 | 0.00 | 0.81 | 0.00 | 99 | 1003.3 |
| 20260506223811 | 10 | 0 | 0.0 | 0.0 | 0.00 | 0.84 | 0.00 | 99 | 1003.5 |
| 20260506222718 | 10 | 0 | 0.0 | 0.0 | 0.00 | 0.86 | 0.00 | 99 | 1003.3 |
| 20260506221803 | 10 | 0 | 0.0 | 0.0 | 0.00 | 0.94 | 0.00 | 99 | 1003.6 |
| 20260506220904 | 10 | 0 | 0.0 | 0.0 | 0.00 | 0.99 | 0.00 | 99 | 1003.2 |
| 20260506220008 | 10 | 0 | 0.0 | 0.0 | 0.00 | 1.04 | 0.00 | 99 | 1003.3 |
| 20260506215403 | 10 | 0 | 0.0 | 0.0 | 0.00 | 1.09 | 1.04 | 99 | 1003.3 |
| 20260506214711 | 10 | 0 | 0.0 | 0.0 | 0.00 | 1.14 | 1.04 | 99 | 1003.3 |
| 20260506213603 | 10 | 0 | 0.0 | 0.0 | 0.00 | 1.17 | 1.04 | 99 | 1003.6 |
| 20260506212703 | 10 | 0 | 0.0 | 0.0 | 0.00 | 1.27 | 1.04 | 99 | 1003.5 |
| 20260506211803 | 10 | 0 | 0.0 | 0.0 | 0.00 | 1.37 | 1.04 | 99 | 1003.3 |
| 20260506210903 | 10 | 174 | 0.0 | 1.6 | 0.00 | 1.47 | 1.04 | 99 | 1003.3 |
| 20260506210212 | 10 | 179 | 0.0 | 1.6 | 0.00 | 1.63 | 1.04 | 99 | 1003.3 |
| 20260506205403 | 10 | 0 | 0.0 | 0.0 | 0.00 | 1.88 | 1.04 | 99 | 1003.3 |
| 20260506204503 | 10 | 203 | 1.6 | 4.8 | 0.00 | 2.16 | 1.04 | 99 | 1003.5 |
| 20260506203605 | 10 | 188 | 0.0 | 3.2 | 0.00 | 2.44 | 1.04 | 99 | 1003.2 |
| 20260506202703 | 11 | 214 | 1.6 | 6.4 | 0.00 | 2.79 | 1.04 | 99 | 1003.2 |
| 20260506201803 | 11 | 173 | 0.0 | 4.8 | 0.00 | 3.25 | 1.04 | 99 | 1003.2 |
| 20260506200903 | 11 | 179 | 1.6 | 4.8 | 0.00 | 4.32 | 1.04 | 99 | 1003.0 |
| 20260506200005 | 11 | 178 | 1.6 | 4.8 | 0.00 | 5.16 | 1.04 | 99 | 1002.9 |
| 20260506195611 | 11 | 176 | 0.0 | 3.2 | 0.00 | 5.36 | 1.04 | 99 | 1002.9 |
| 20260506194503 | 11 | 173 | 0.0 | 1.6 | 0.00 | 5.74 | 1.04 | 99 | 1002.9 |
| 20260506193603 | 11 | 177 | 0.0 | 3.2 | 0.00 | 5.92 | 1.04 | 99 | 1002.7 |
| 20260506192703 | 11 | 176 | 1.6 | 6.4 | 0.00 | 5.94 | 1.04 | 99 | 1002.6 |
| 20260506191803 | 11 | 184 | 1.6 | 4.8 | 0.00 | 5.99 | 1.04 | 99 | 1002.6 |
| 20260506190903 | 10 | 209 | 1.6 | 6.4 | 0.00 | 6.07 | 1.04 | 99 | 1002.5 |
| 20260506190005 | 10 | 194 | 3.2 | 6.4 | 0.00 | 6.12 | 1.04 | 99 | 1002.2 |
| 20260506185611 | 10 | 197 | 4.8 | 6.4 | 0.00 | 6.15 | 1.04 | 99 | 1001.9 |
| 20260506184504 | 11 | 184 | 1.6 | 4.8 | 0.00 | 6.17 | 1.04 | 99 | 1002.0 |
| 20260506183604 | 11 | 174 | 0.0 | 1.6 | 0.00 | 6.20 | 1.04 | 99 | 1001.7 |
| 20260506182703 | 11 | 165 | 0.0 | 1.6 | 0.00 | 6.25 | 1.04 | 99 | 1001.4 |
| 20260506181804 | 11 | 174 | 0.0 | 3.2 | 0.00 | 6.25 | 1.04 | 99 | 1001.2 |
| 20260506180903 | 11 | 185 | 1.6 | 4.8 | 0.03 | 6.27 | 1.04 | 99 | 1001.0 |
| 20260506180005 | 11 | 174 | 0.0 | 6.4 | 0.05 | 6.27 | 1.04 | 99 | 1001.2 |
| 20260506175405 | 11 | 155 | 1.6 | 4.8 | 0.10 | 6.27 | 1.04 | 99 | 1001.2 |
| 20260506174503 | 11 | 165 | 0.0 | 4.8 | 0.13 | 6.27 | 1.04 | 99 | 1001.0 |
| 20260506173618 | 11 | 168 | 0.0 | 3.2 | 0.18 | 6.27 | 1.04 | 99 | 1000.9 |
| 20260506172703 | 11 | 185 | 1.6 | 9.7 | 0.18 | 6.27 | 1.04 | 99 | 1001.2 |
| 20260506171803 | 11 | 180 | 1.6 | 6.4 | 0.18 | 6.27 | 1.04 | 99 | 1001.2 |
| 20260506170903 | 11 | 195 | 3.2 | 9.7 | 0.15 | 6.25 | 1.02 | 99 | 1001.5 |
| 20260506170005 | 11 | 198 | 4.8 | 16.1 | 0.13 | 6.20 | 0.99 | 98 | 1001.6 |
| 20260506165403 | 11 | 194 | 4.8 | 12.9 | 0.10 | 6.17 | 0.97 | 98 | 1001.6 |
| 20260506164503 | 11 | 194 | 4.8 | 11.3 | 0.05 | 6.15 | 0.94 | 97 | 1001.5 |
| 20260506163811 | 12 | 197 | 3.2 | 11.3 | 0.03 | 6.12 | 0.94 | 96 | 1001.6 |
| 20260506162910 | 12 | 208 | 4.8 | 20.9 | 0.10 | 6.10 | 0.86 | 96 | 1001.3 |
| 20260506162011 | 13 | 192 | 3.2 | 12.9 | 0.23 | 6.10 | 0.86 | 98 | 1001.4 |
| 20260506160903 | 12 | 189 | 3.2 | 11.3 | 0.48 | 6.10 | 0.86 | 99 | 1001.2 |
| 20260506160005 | 12 | 165 | 1.6 | 4.8 | 0.51 | 6.10 | 0.86 | 99 | 1001.1 |
| 20260506155403 | 12 | 166 | 1.6 | 4.8 | 0.51 | 6.10 | 0.86 | 99 | 1000.9 |
| 20260506154504 | 12 | 176 | 3.2 | 4.8 | 0.51 | 6.10 | 0.86 | 98 | 1001.0 |
| 20260506153603 | 12 | 190 | 3.2 | 9.7 | 0.51 | 6.10 | 0.86 | 96 | 1001.1 |
| 20260506152704 | 12 | 201 | 6.4 | 14.5 | 0.38 | 5.97 | 0.76 | 95 | 1001.1 |
| 20260506151803 | 14 | 188 | 4.8 | 14.5 | 0.23 | 5.82 | 0.61 | 91 | 1001.4 |
| 20260506150903 | 17 | 191 | 3.2 | 14.5 | 0.03 | 5.61 | 0.38 | 77 | 1001.0 |
| 20260506150005 | 18 | 188 | 1.6 | 6.4 | 0.00 | 5.59 | 0.36 | 64 | 1000.7 |
| 20260506145404 | 18 | 181 | 3.2 | 11.3 | 0.00 | 5.59 | 0.36 | 61 | 1000.7 |
| 20260506144503 | 18 | 201 | 3.2 | 14.5 | 0.00 | 5.59 | 0.36 | 60 | 1001.0 |
| 20260506143603 | 18 | 244 | 3.2 | 9.7 | 0.00 | 5.59 | 0.36 | 63 | 1000.9 |
| 20260506142718 | 17 | 249 | 3.2 | 6.4 | 0.00 | 5.59 | 0.36 | 63 | 1001.0 |
| 20260506141803 | 18 | 194 | 3.2 | 9.7 | 0.00 | 5.59 | 0.36 | 66 | 1001.0 |